Regional Weather Roundup
Issued by NWS

Home | Current Version | Previous Version | Graphics & Text | Print | Product List | Glossary On
Versions: 1 2 3 4 5 6 7 8 9 10 11 12 13 14 15 16 17 18 19 20 21 22 23 24 25 26 27 28 29 30 31 32 33 34 35 36 37 38 39 40 41 42 43 44 45 46 47 48 49 50
000
ASUS45 KSLC 140610
RWRUT

UTAH REGIONAL WEATHER ROUNDUP
NATIONAL WEATHER SERVICE SALT LAKE CITY UT
1100 PM MST SAT FEB 13 2016

UTZ001>011-023>025-140700-

NORTHERN UTAH

CITY           SKY/WX    TMP DP  RH WIND       PRES   REMARKS
BRIGHAM CITY   CLOUDY    26  25  94 CALM      30.34S VSB 1/4
HILL AFB       FOG       26  25  95 CALM      30.31R VSB<1/4
LOGAN          FOG       22  22 100 CALM      30.31R VSB 1/4
OGDEN          FOG       27  27 100 SE3       30.32R VSB 1/4
PROVO AIRPORT    N/A    N/A N/A N/A W3        30.31F VSB<1/4
SALT LAKE CITY FOG       29  29 100 S3        30.31F VSB 1/8
VERNAL         CLOUDY    23  19  85 NW5       30.23S FOG     WCI  17
WENDOVER       CLOUDY    27  25  93 S3        30.33S VSB 1/2
WEST JORDAN    CLOUDY    28  28 100 S7        30.31F VSB 1/4 WCI  21

$$

UTZ012>022-026-027-140700-

SOUTHERN/CENTRAL UTAH

CITY           SKY/WX    TMP DP  RH WIND       PRES   REMARKS
BLANDING       PTCLDY    35  23  60 N7        30.25F WCI  30
BRYCE CANYON   PTCLDY    21  13  71 W5        30.31R WCI  15
CEDAR CITY     PTCLDY    28  23  81 SE7       30.28R WCI  21
DELTA            N/A     15  13  95 CALM      30.32S VSB<1/4
MILFORD        MOCLDY    13  11  92 NW5       30.30F FOG     WCI   5
MOAB/CYNLANDS  CLEAR     32  30  92 CALM      30.20R
PRICE          CLEAR     38  25  59 CALM      30.23F
ST GEORGE      PTCLDY    46  25  42 SE7       30.19R
KANAB          CLEAR     37  27  65 E7        30.24R WCI  32

$$

REGIONAL REPORTS     COLORADO/ARIZONA

CITY           SKY/WX    TMP DP  RH WIND       PRES   REMARKS
CRAIG, CO      CLOUDY    14  10  84 E3        30.25S
GRAND JUNCTION CLEAR     29  27  92 NE9       30.22S WCI  20
RIFLE          CLOUDY    27  20  75 CALM      30.23S
MONTROSE       CLOUDY    30  26  85 SE7       30.25F WCI  23
CORTEZ         CLOUDY    31  25  78 E10       30.19F WCI  22
PAGE, AZ       PTCLDY    47  33  58 CALM      30.17R
GRAND CANYON   CLOUDY    30  20  66 CALM      30.24S
KINGMAN          N/A     46  20  35 E10       30.13F
FLAGSTAFF      PTCLDY    27  17  66 CALM      30.24F

$$

REGIONAL REPORTS    NEVADA/IDAHO/WYOMING

CITY           SKY/WX    TMP DP  RH WIND       PRES   REMARKS
LAS VEGAS, NV  CLEAR     59  24  26 S3        30.09R
ELY            MOCLDY    23  15  71 S13       30.34F WCI  11
ELKO           CLOUDY    30  26  85 CALM      30.30S
POCATELLO, ID  CLOUDY    37  29  72 S13       30.24F WCI  29
BURLEY         MOCLDY    36  28  73 W6        30.23F WCI  31
EVANSTON, WY   CLOUDY    27  19  72 W20       30.23F WCI  13
ROCK SPRINGS   CLOUDY    31  20  63 W16G25    30.19F WCI  20

$$



USA.gov is the U.S. government's official web portal to all federal, state and local government web resources and services.